Location: Baix
(44.7118°N, 4.7648°E)
Time: 02:11:41
(UTC+00:00)

Cosmos 1655 Rocket - Pass Details

Date: 07 August 2020
Orbit: 969 x 1007 km, 83.0° (Epoch: 19 September)

Event Time Altitude Azimuth Distance (km) Brightness Sun altitude
Rises 02:31:59 0° 347° (NNW) 3,702 7.5 -18.3°
Reaches altitude 10° 02:34:34 10° 344° (NNW) 2,744 6.8 -18.0°
Maximum altitude 02:40:39 54° 268° (W) 1,168 4.1 -17.3°
Enters shadow 02:44:30 23° 200° (SSW) 1,956 5.1 -16.8°
